User: anonymous   Login
Location: ??????
(30.5519°N, 47.7720°E)
Time: 09:02:28
(UTC+00:00)
Language:

CZ-4 R/B - Orbit

View from above orbital plane
View from above orbital plane
View from above satellite
View from above satellite

Ground track
Ground track

The orbit data is extracted from the following two-line orbital elements,

1 28414U 04035B   21104.85246698 -.00000320  00000-0 -24507-4 0  9996
2 28414  97.7437 126.7571 0007252  46.6667 313.5165 14.94326152903944
Epoch (UTC): 14 April 2021 20:27:33
Eccentricity: 0.0007252
inclination: 97.7437°
perigee height: 579 km
apogee height: 589 km
right ascension of ascending node: 126.7571°
argument of perigee: 46.6667°
revolutions per day: 14.94326152
mean anomaly at epoch: 313.5165°
orbit number at epoch: 90394

The dashed part of the orbit path shows where the satellite is in the earth's shadow,  

DLR